Winfield, KS

11:30 AM CST on November 22, 2019 (GMT -0600)
Strother

Weather History for KWLD - August, 2019

Change the Weather History Date:

Sunday, August 25, 2019

  Actual Average Record
Temperature  
Mean Temperature 72 °F -  
Max Temperature 81 °F 90 °F 106 °F (2006)
Min Temperature 63 °F 67 °F 54 °F (2010)
Cooling Degree Days 6    
Growing Degree Days 22 (Base 50)    
Moisture  
Dew Point 67 °F    
Average Humidity 92    
Maximum Humidity 100    
Minimum Humidity 66    
Precipitation  
Precipitation 1.20 in - - ()
Sea Level Pressure  
Sea Level Pressure 29.89 in    
Wind  
Wind Speed 7 mph ()    
Max Wind Speed 15 mph    
Max Gust Speed 25 mph    
Visibility 8.2 miles    
Events Rain , Thunderstorm    
Averages and records for this station are not official NWS values.
T = Trace of Precipitation, MM = Missing Value Source: Averaged Metar Reports

Daily Weather History Graph

Daily Weather History Graph

Search for Another Location

Airport or City:

Astronomy

Aug. 25, 2019 Rise Set
Actual Time 6:52 AM CDT 8:07 PM CDT
Civil Twilight 6:25 AM CDT 8:33 PM CDT
Nautical Twilight 5:53 AM CDT 9:06 PM CDT
Astronomical Twilight 5:19 AM CDT 9:39 PM CDT
Moon 1:32 AM CDT (8/25) 4:24 PM CDT (8/25)
Length of Visible Light 14h 08m
Length of Day
13h 14m
Waning Crescent, 29% of the Moon is Illuminated
Aug 25
Waning Crescent
Aug 30
New
Sep 5
First Quarter
Sep 13
Full
Sep 21
Last Quarter

Hourly Weather History & Observations

Time (CDT) Temp. Heat Index Dew Point Humidity Pressure Visibility Wind Dir Wind Speed Gust Speed Precip Events Conditions
12:43 AM 73.0 °F - 70.0 °F 90% 29.93 in 10.0 mi ESE 10.4 mph - N/A   Mostly Cloudy
12:50 AM 73.4 °F - 69.8 °F 88% 29.93 in 10.0 mi ESE 9.2 mph - N/A   Mostly Cloudy
12:54 AM 73.0 °F - 70.0 °F 90% 29.90 in 10.0 mi ESE 10.4 mph - N/A   Mostly Cloudy
1:14 AM 73.0 °F - 70.0 °F 90% 29.93 in 10.0 mi ESE 8.1 mph - N/A   Overcast
1:25 AM 73.0 °F - 71.1 °F 93% 29.93 in 10.0 mi SE 5.8 mph - N/A   Overcast
1:54 AM 73.0 °F - 71.1 °F 93% 29.89 in 10.0 mi East 8.1 mph - N/A   Overcast
2:54 AM 73.0 °F - 72.0 °F 96% 29.88 in 10.0 mi ESE 6.9 mph 19.6 mph N/A   Overcast
3:54 AM 73.0 °F - 72.0 °F 96% 29.86 in 10.0 mi SE 9.2 mph 18.4 mph N/A   Overcast
4:32 AM 63.0 °F - 62.1 °F 97% 29.96 in 3.0 mi North 10.4 mph 24.2 mph 0.04 in Rain , Thunderstorm Rain
4:37 AM 63.0 °F - 63.0 °F 100% 29.96 in 1.8 mi NNE 8.1 mph - 0.13 in Rain , Thunderstorm Heavy Thunderstorms and Rain
4:54 AM 63.0 °F - 63.0 °F 100% 29.93 in 1.2 mi North 8.1 mph - 0.54 in Rain , Thunderstorm Heavy Thunderstorms and Rain
5:00 AM 63.0 °F - 63.0 °F 100% 29.92 in 2.5 mi East 11.5 mph - 0.02 in Rain , Thunderstorm Rain
5:02 AM 63.0 °F - 63.0 °F 100% 29.91 in 3.0 mi East 15.0 mph 20.7 mph 0.02 in Rain , Thunderstorm Light Thunderstorms and Rain
5:10 AM 63.0 °F - 63.0 °F 100% 29.90 in 6.0 mi East 11.5 mph 23.0 mph 0.04 in Rain , Thunderstorm Heavy Thunderstorms and Rain
5:18 AM 63.0 °F - 63.0 °F 100% 29.92 in 8.0 mi Variable 6.9 mph 20.7 mph 0.04 in Rain , Thunderstorm Light Thunderstorms and Rain
5:37 AM 63.0 °F - 63.0 °F 100% 29.93 in 10.0 mi NNE 5.8 mph - 0.04 in Thunderstorm Overcast
5:54 AM 63.0 °F - 63.0 °F 100% 29.92 in 10.0 mi NNW 6.9 mph - 0.04 in   Overcast
6:06 AM 63.0 °F - 63.0 °F 100% 29.96 in 10.0 mi WNW 11.5 mph - 0.00 in Rain , Thunderstorm Light Rain
6:16 AM 63.0 °F - 63.0 °F 100% 29.96 in 1.5 mi NW 6.9 mph 25.3 mph 0.18 in Rain , Thunderstorm Heavy Rain
6:19 AM 63.0 °F - 63.0 °F 100% 29.96 in 1.0 mi West 6.9 mph 25.3 mph 0.25 in Rain , Thunderstorm Heavy Thunderstorms and Rain
6:29 AM 63.0 °F - 63.0 °F 100% 29.96 in 2.0 mi South 4.6 mph - 0.33 in Rain , Thunderstorm Heavy Thunderstorms and Rain
6:38 AM 63.0 °F - 63.0 °F 100% 29.93 in 4.0 mi ESE 3.5 mph - 0.36 in Rain , Thunderstorm Thunderstorms and Rain
6:50 AM 64.4 °F - 62.6 °F 94% 29.92 in 6.0 mi East 5.8 mph - 0.38 in Rain , Thunderstorm Light Rain
6:54 AM 64.0 °F - 63.0 °F 96% 29.89 in 8.0 mi East 6.9 mph - 0.38 in Rain , Thunderstorm Light Rain
7:09 AM 63.0 °F - 63.0 °F 100% 29.92 in 7.0 mi Calm Calm - 0.02 in Rain Light Rain
7:54 AM 64.0 °F - - N/A% 29.90 in 6.0 mi Calm Calm - 0.10 in Rain , Thunderstorm Thunderstorms and Rain
8:17 AM 64.0 °F - - N/A% 29.92 in 6.0 mi SSW 9.2 mph - 0.03 in Rain Rain
8:54 AM 64.0 °F - - N/A% 29.88 in 9.0 mi SSE 9.2 mph - 0.09 in Rain Light Rain
9:01 AM 64.0 °F - - N/A% 29.90 in 9.0 mi SSE 11.5 mph - 0.01 in Rain , Thunderstorm Light Thunderstorms and Rain
9:16 AM 64.0 °F - - N/A% 29.89 in 8.0 mi SSE 6.9 mph - 0.03 in Rain , Thunderstorm Light Rain
9:28 AM 64.0 °F - - N/A% 29.89 in 9.0 mi South 8.1 mph - 0.03 in Rain Light Rain
9:54 AM 64.0 °F - - N/A% 29.86 in 10.0 mi South 8.1 mph - 0.04 in   Scattered Clouds
10:21 AM 64.9 °F - - N/A% 29.91 in 10.0 mi SSW 5.8 mph - N/A   Mostly Cloudy
10:35 AM 64.9 °F - - N/A% 29.92 in 10.0 mi SW 10.4 mph - N/A   Mostly Cloudy
10:54 AM 64.9 °F - - N/A% 29.92 in 10.0 mi WSW 12.7 mph - N/A   Overcast
11:21 AM 64.9 °F - - N/A% 29.93 in 10.0 mi SW 8.1 mph - N/A Thunderstorm Overcast
11:36 AM 64.9 °F - - N/A% 29.91 in 10.0 mi SSW 4.6 mph - 0.01 in Rain Light Rain
11:54 AM 66.0 °F - - N/A% 29.87 in 10.0 mi SSW 5.8 mph - 0.01 in   Overcast
12:40 PM 68.0 °F - 68.0 °F 100% 29.90 in 10.0 mi Calm Calm - N/A Thunderstorm Overcast
12:54 PM 69.1 °F - 69.1 °F 100% 29.86 in 10.0 mi Calm Calm - N/A   Mostly Cloudy
1:09 PM 70.0 °F - 70.0 °F 100% 29.89 in 10.0 mi Calm Calm - N/A   Scattered Clouds
1:33 PM 71.1 °F - 69.1 °F 93% 29.87 in 10.0 mi Variable 3.5 mph - N/A   Mostly Cloudy
1:54 PM 73.0 °F - 69.1 °F 87% 29.84 in 10.0 mi South 5.8 mph - N/A   Scattered Clouds
2:54 PM 75.0 °F - 66.9 °F 76% 29.83 in 10.0 mi Calm Calm - N/A   Clear
3:54 PM 78.1 °F - 66.9 °F 68% 29.79 in 10.0 mi Calm Calm - N/A   Clear
4:54 PM 79.0 °F - 66.9 °F 66% 29.78 in 10.0 mi ESE 4.6 mph - N/A   Clear
5:54 PM 80.1 °F 82.9 °F 69.1 °F 69% 29.77 in 10.0 mi ESE 8.1 mph - N/A   Clear
6:54 PM 79.0 °F - 70.0 °F 74% 29.77 in 10.0 mi SSE 8.1 mph - N/A   Clear
7:54 PM 75.9 °F - 69.1 °F 79% 29.78 in 10.0 mi SE 4.6 mph - N/A   Partly Cloudy
8:54 PM 75.0 °F - 69.1 °F 82% 29.79 in 10.0 mi East 5.8 mph - N/A   Overcast
9:54 PM 73.0 °F - 69.1 °F 87% 29.81 in 10.0 mi East 8.1 mph - N/A   Scattered Clouds
10:54 PM 72.0 °F - 69.1 °F 91% 29.79 in 10.0 mi East 6.9 mph - N/A   Partly Cloudy
11:54 PM 72.0 °F - 69.1 °F 91% 29.79 in 10.0 mi East 8.1 mph - N/A   Mostly Cloudy